Tracking 18945 objects as of 20-Jan-2018
HD Live streaming from Space Station
objects crossing your sky now

FLOCK 2K 39

Track FLOCK 2K 39 now!
10-day predictions
FLOCK 2K 39 is classified as:


NORAD ID: 42866
Int'l Code: 2017-042AT
Perigee: 460.4 km
Apogee: 473.4 km
Inclination: 97.0 °
Period: 93.8 minutes
Semi major axis: 6837 km
RCS: Unknown
Launch date: July 14, 2017
Source: United States (US)
Launch site: TYURATAM MISSILE AND SPACE COMPLEX (TTMTR)
aabbcc
Your satellite tracking list
Your tracking list is empty




NASA's NSSDC Master Catalog

Two Line Element Set (TLE):
1 42866U 17042AT  18019.51097212 +.00006791 +00000-0 +19938-3 0  9992
2 42866 096.9939 283.6219 0009529 296.4041 063.6225 15.35401621028816
Source of the keplerian elements: AFSPC